Swanton, VT

1:51 AM EST on December 11, 2016 (GMT -0500)
Franklin County State

Weather History for KFSO - February, 2013

Change the Weather History Date:

Monday, February 11, 2013

  Actual Average (KPBG) Record (KPBG)
Temperature  
Mean Temperature 25 °F -  
Max Temperature 38 °F 27 °F 55 °F (1966)
Min Temperature 12 °F 6 °F -21 °F (1983)
Degree Days  
Heating Degree Days 40    
Moisture  
Dew Point 19 °F    
Average Humidity 66    
Maximum Humidity 94    
Minimum Humidity 30    
Precipitation  
Precipitation 0.00 in - - ()
Sea Level Pressure  
Sea Level Pressure 29.81 in    
Wind  
Wind Speed 8 mph (South)    
Max Wind Speed 21 mph    
Max Gust Speed 32 mph    
Visibility 9 miles    
Events Snow    
Averages and records for this station are not official NWS values.
T = Trace of Precipitation, MM = Missing Value Source: NWS Daily Summary

Daily Weather History Graph

Daily Weather History Graph

Search for Another Location

Airport or City:

Trip Planner

Search our weather history database for the weather conditions in past years. The results will help you decide how hot, cold, wet, or windy it might be!

Date:

Astronomy

Feb. 11, 2013 Rise Set
Actual Time 6:58 AM EST 5:15 PM EST
Civil Twilight 6:28 AM EST 5:45 PM EST
Nautical Twilight 5:53 AM EST 6:20 PM EST
Astronomical Twilight 5:19 AM EST 6:54 PM EST
Moon 7:15 AM EST 7:16 PM EST
Length of Visible Light 11h 17m
Length of Day
10h 16m
Waxing Crescent, 3% of the Moon is Illuminated
Feb 11
Waxing Crescent
Feb 17
First Quarter
Feb 25
Full
Mar 4
Last Quarter
Mar 11
New

Hourly Weather History & Observations

Time (EST) Temp. Windchill Dew Point Humidity Pressure Visibility Wind Dir Wind Speed Gust Speed Precip Events Conditions
12:15 AM 12.0 °F 4.1 °F 1.4 °F 62% 30.21 in 10.0 mi SE 4.6 mph - N/A   Clear
12:35 AM 12.0 °F 2.7 °F 1.2 °F 62% 30.20 in 10.0 mi SE 5.8 mph - N/A   Clear
12:55 AM 12.0 °F 4.1 °F 1.4 °F 62% 30.18 in 10.0 mi SE 4.6 mph - N/A   Clear
1:15 AM 12.0 °F 2.7 °F 1.0 °F 61% 30.16 in 10.0 mi ESE 5.8 mph - N/A   Clear
1:35 AM 14.2 °F 5.3 °F 1.9 °F 58% 30.16 in 10.0 mi SE 5.8 mph - N/A   Clear
1:55 AM 14.5 °F 5.7 °F 2.3 °F 58% 30.15 in 10.0 mi SE 5.8 mph - N/A   Clear
2:15 AM 14.0 °F 6.5 °F 1.9 °F 59% 30.13 in 10.0 mi SSE 4.6 mph - N/A   Clear
2:35 AM 14.5 °F 5.7 °F 2.1 °F 58% 30.12 in 10.0 mi SE 5.8 mph - N/A   Clear
2:55 AM 16.9 °F 7.4 °F 3.9 °F 57% 30.10 in 10.0 mi SE 6.9 mph - N/A   Clear
3:15 AM 17.1 °F 8.7 °F 3.6 °F 56% 30.09 in 10.0 mi SE 5.8 mph - N/A   Mostly Cloudy
3:35 AM 17.8 °F 10.9 °F 4.6 °F 57% 30.07 in 10.0 mi SE 4.6 mph - N/A   Scattered Clouds
4:15 AM 18.3 °F 10.2 °F 5.2 °F 57% 30.04 in 10.0 mi SE 5.8 mph - N/A   Scattered Clouds
4:35 AM 19.8 °F 14.7 °F 4.8 °F 52% 30.02 in 10.0 mi ESE 3.5 mph - N/A   Mostly Cloudy
4:55 AM 20.8 °F 13.2 °F 5.4 °F 51% 30.01 in 10.0 mi SE 5.8 mph - N/A   Mostly Cloudy
5:15 AM 20.5 °F - 5.5 °F 53% 30.00 in 10.0 mi Calm Calm - N/A   Scattered Clouds
5:35 AM 20.5 °F 15.6 °F 6.8 °F 56% 29.99 in 10.0 mi ESE 3.5 mph - N/A   Scattered Clouds
5:55 AM 23.7 °F 17.8 °F 7.0 °F 49% 29.98 in 10.0 mi South 4.6 mph - N/A   Mostly Cloudy
6:15 AM 27.7 °F 20.4 °F 3.4 °F 35% 29.97 in 10.0 mi South 6.9 mph - N/A   Mostly Cloudy
6:35 AM 29.7 °F 22.0 °F 3.7 °F 33% 29.95 in 10.0 mi South 8.1 mph - N/A   Overcast
6:55 AM 32.0 °F 23.6 °F 4.6 °F 32% 29.94 in 10.0 mi SSE 10.4 mph 16.1 mph N/A   Overcast
7:15 AM 32.0 °F 24.2 °F 3.7 °F 30% 29.93 in 10.0 mi South 9.2 mph 16.1 mph N/A   Overcast
7:35 AM 32.0 °F 22.5 °F 4.1 °F 31% 29.92 in 10.0 mi South 12.7 mph 19.6 mph N/A   Overcast
7:55 AM 32.0 °F 22.5 °F 5.0 °F 32% 29.91 in 10.0 mi South 12.7 mph 23.0 mph N/A   Overcast
8:15 AM 32.9 °F 25.9 °F 6.1 °F 32% 29.90 in 10.0 mi South 8.1 mph 19.6 mph N/A   Mostly Cloudy
8:35 AM 33.4 °F 25.9 °F 7.3 °F 34% 29.88 in 10.0 mi South 9.2 mph - N/A   Overcast
8:55 AM 34.0 °F 28.8 °F 7.7 °F 33% 29.87 in 10.0 mi South 5.8 mph - N/A   Overcast
9:15 AM 34.0 °F 23.4 °F 8.8 °F 35% 29.85 in 10.0 mi SSE 17.3 mph 24.2 mph N/A   Overcast
9:35 AM 34.3 °F 22.9 °F 10.4 °F 37% 29.84 in 10.0 mi South 20.7 mph 32.2 mph N/A   Overcast
9:55 AM 34.3 °F 23.2 °F 15.6 °F 46% 29.82 in 7.0 mi South 19.6 mph 29.9 mph N/A Snow Light Snow
10:15 AM 34.3 °F 23.9 °F 18.9 °F 53% 29.81 in 10.0 mi South 17.3 mph 26.5 mph N/A   Overcast
10:35 AM 34.3 °F 23.2 °F 23.5 °F 65% 29.80 in 10.0 mi South 19.6 mph 32.2 mph N/A   Overcast
10:55 AM 34.3 °F 24.2 °F 26.4 °F 73% 29.80 in 4.0 mi South 16.1 mph 29.9 mph N/A Snow Light Snow
11:15 AM 34.3 °F 23.9 °F 28.0 °F 78% 29.80 in 4.0 mi South 17.3 mph 25.3 mph N/A Snow Light Snow
11:35 AM 32.0 °F 22.5 °F 28.2 °F 86% 29.78 in 1.2 mi South 12.7 mph 19.6 mph N/A Snow Light Snow
11:55 AM 34.3 °F 25.0 °F 29.8 °F 84% 29.77 in 10.0 mi South 13.8 mph 20.7 mph N/A   Overcast
12:15 PM 34.3 °F 24.2 °F 28.6 °F 79% 29.75 in 10.0 mi South 16.1 mph 24.2 mph N/A   Overcast
12:35 PM 36.7 °F 28.4 °F 30.0 °F 77% 29.73 in 10.0 mi South 12.7 mph 27.6 mph N/A   Overcast
12:55 PM 36.9 °F 28.2 °F 29.3 °F 74% 29.71 in 10.0 mi South 13.8 mph 23.0 mph N/A   Overcast
1:15 PM 36.9 °F 28.7 °F 29.3 °F 74% 29.70 in 10.0 mi South 12.7 mph 24.2 mph N/A   Overcast
1:35 PM 36.9 °F 27.8 °F 29.3 °F 74% 29.69 in 10.0 mi South 15.0 mph 25.3 mph N/A   Overcast
1:55 PM 36.9 °F 29.1 °F 30.0 °F 76% 29.67 in 10.0 mi South 11.5 mph 19.6 mph N/A   Overcast
2:15 PM 36.9 °F 29.1 °F 30.2 °F 77% 29.66 in 10.0 mi South 11.5 mph 21.9 mph N/A   Overcast
2:35 PM 36.9 °F 30.7 °F 30.6 °F 78% 29.64 in 10.0 mi South 8.1 mph 20.7 mph N/A   Overcast
2:55 PM 38.3 °F 31.9 °F 31.1 °F 75% 29.64 in 10.0 mi South 9.2 mph 24.2 mph N/A   Overcast
3:15 PM 37.4 °F 31.4 °F 31.1 °F 78% 29.64 in 10.0 mi South 8.1 mph - N/A   Overcast
3:35 PM 37.4 °F 29.3 °F 31.5 °F 79% 29.62 in 10.0 mi South 12.7 mph 19.6 mph N/A   Overcast
3:55 PM 38.1 °F 30.2 °F 31.8 °F 78% 29.62 in 10.0 mi South 12.7 mph 18.4 mph N/A   Overcast
4:15 PM 37.6 °F 30.0 °F 31.8 °F 80% 29.61 in 10.0 mi South 11.5 mph 16.1 mph N/A   Overcast
4:35 PM 37.9 °F 30.9 °F 32.0 °F 79% 29.60 in 10.0 mi South 10.4 mph 17.3 mph N/A   Overcast
4:55 PM 38.3 °F 30.9 °F 32.0 °F 78% 29.58 in 10.0 mi South 11.5 mph - N/A   Overcast
6:15 PM 36.9 °F 31.4 °F 32.0 °F 83% 29.58 in 10.0 mi South 6.9 mph - N/A   Overcast
6:35 PM 36.9 °F 30.7 °F 32.4 °F 84% 29.59 in 10.0 mi SSW 8.1 mph - N/A   Overcast
6:55 PM 36.9 °F 30.7 °F 32.9 °F 86% 29.58 in 10.0 mi SSW 8.1 mph 17.3 mph N/A   Overcast
7:15 PM 36.9 °F 30.7 °F 32.9 °F 86% 29.59 in 10.0 mi SSW 8.1 mph - N/A   Overcast
7:35 PM 36.9 °F 32.2 °F 33.4 °F 87% 29.59 in 7.0 mi South 5.8 mph - N/A   Overcast
8:15 PM 35.6 °F 31.7 °F 33.1 °F 91% 29.59 in 5.0 mi SSW 4.6 mph - N/A   Overcast
8:35 PM 34.7 °F 30.6 °F 32.4 °F 91% 29.60 in 5.0 mi South 4.6 mph - N/A   Overcast
8:55 PM 34.3 °F 27.7 °F 32.4 °F 92% 29.57 in 5.0 mi SSE 8.1 mph - N/A   Overcast
9:15 PM 34.3 °F 29.2 °F 32.9 °F 94% 29.57 in 7.0 mi South 5.8 mph - N/A   Overcast
9:35 PM 34.7 °F 28.8 °F 33.1 °F 94% 29.57 in 10.0 mi SSW 6.9 mph - N/A   Overcast
9:55 PM 34.9 °F 28.3 °F 32.7 °F 92% 29.59 in 10.0 mi SW 8.1 mph - N/A   Overcast
10:15 PM 36.5 °F 29.2 °F 32.0 °F 84% 29.59 in 10.0 mi SSW 10.4 mph 21.9 mph N/A   Overcast
10:35 PM 36.9 °F 30.7 °F 30.4 °F 77% 29.59 in 10.0 mi SSW 8.1 mph 17.3 mph N/A   Overcast
10:55 PM 36.9 °F 30.7 °F 29.3 °F 74% 29.59 in 10.0 mi SW 8.1 mph 17.3 mph N/A   Overcast
11:15 PM 36.9 °F 31.4 °F 29.1 °F 74% 29.59 in 10.0 mi WSW 6.9 mph - N/A   Overcast
11:35 PM 36.5 °F 32.7 °F 28.8 °F 74% 29.59 in 10.0 mi West 4.6 mph - N/A   Overcast
11:55 PM 34.9 °F 29.9 °F 27.3 °F 74% 29.58 in 10.0 mi SW 5.8 mph - N/A   Overcast